Погода в Бикбарде

Россия / Пермский край     56°28′40″N   55°43′17″E
темп.,
°C
ветер,
м/с
пор.,
м/с
влажн.,
%
обл.,
%
осадки,
мм/ч
давл.,
гПа
погр.,
м
7 мая, пт
пт723:00+7зюз338023 0.0 101743
02:00+6юз228256 0.0 101822
05:00+6ю3487100 0.0 101951
08:00+10ю48767 0.0 1019243
11:00+16ююз566067 0.0 1018789
14:00+19юз574686 0.3 10182348
17:00+16ююз376497 0.3 1017240
20:00+15ю3669100 0.0 1017148
8 мая, сб
сб823:00+13ю3868100 0.0 1017147
02:00+12ююз2471100 0.0 101760
05:00+12юв2270100 0.0 101731
08:00+13ю2369100 0.1 1018164
11:00+17юз2454100 0.1 1018687
14:00+18юз3447100 0.0 10172027
17:00+18ююз224790 0.0 10171587
20:00+15ююв226459 0.1 101722
9 мая, вс
вс923:00+12вюв11685 0.1 101710
02:00+10в117331 0.0 101810
05:00+10вюв22815 0.0 101816
08:00+13вюв23685 0.0 1018155
11:00+18юв34505 0.0 1018869
14:00+21ююв333922 0.0 10172200
17:00+21вюв2342100 0.0 10171412
20:00+18в115352 0.0 101711
10 мая, пн
пн1023:00+15всв2253100 0.0 101826
02:00+13вюв355782 0.0 101875
05:00+11юв226498 0.0 101924
08:00+14ююв2561100 0.0 1020161
11:00+17юз355397 0.0 1021487
14:00+19зсз6555100 0.0 10211356
17:00+10ссз61087100 0.5 1024454
20:00+9с61181100 0.0 1026597
11 мая, вт
вт1123:00+7ссз4991100 3.9 1027592
02:00+5ссз22925 0.0 102934
05:00+5ссз22880 0.0 103128
08:00+9ссз24670 0.0 1031240
11:00+13ссз2443100 0.0 10321379
14:00+16сз353867 0.0 10311785
17:00+17сз454156 0.0 10301578
20:00+15сз1158100 0.0 103012